Location: Moscow
(38.8570°N, 84.2291°W)
Time: 15:47:36
(UTC+00:00)

Cosmos 2233 Rocket - Pass Details

Date: 15 November 2025
Orbit: 952 x 989 km, 82.9° (Epoch: 06 December)

Event Time Altitude Azimuth Distance (km) Brightness Sun altitude
Rises 23:07:26 0° 192° (SSW) 3,668 7.4 -9.0°
Reaches altitude 10° 23:09:56 10° 195° (SSW) 2,728 6.8 -9.4°
Maximum altitude 23:16:11 69° 278° (W) 1,050 4.4 -10.6°
Drops below altitude 10° 23:22:30 10° 2° (N) 2,757 6.2 -11.8°
Sets 23:25:03 0° 5° (N) 3,710 6.8 -12.3°
